User: anonymous   Login
Location: Carrer del Canonge
(41.4901°N, 2.2931°E)
Time: 01:52:52
(UTC+00:00)
Language:

CSL-04 Rocket - Orbit

View from above orbital plane
View from above orbital plane
View from above satellite
View from above satellite

Ground track
Ground track

The orbit data is extracted from the following two-line orbital elements,

1 25732U 99025C   20339.34222975 -.00000003  00000-0  20600-4 0  9991
2 25732  98.9276   9.1124 0038349  86.5446 284.5136 14.17684824116034
Epoch (UTC): 04 December 2020 08:12:48
Eccentricity: 0.0038349
inclination: 98.9276°
perigee height: 805 km
apogee height: 861 km
right ascension of ascending node: 9.1124°
argument of perigee: 86.5446°
revolutions per day: 14.17684824
mean anomaly at epoch: 284.5136°
orbit number at epoch: 11603

The dashed part of the orbit path shows where the satellite is in the earth's shadow,  

DLR